Погода в Рамешках

Россия / Тверская область     57°20′37″N   36°02′38″E
темп.,
°C
ветер,
м/с
пор.,
м/с
влажн.,
%
обл.,
%
осадки,
мм/ч
давл.,
гПа
погр.,
м
13 июня, вс
вс1300:00+13ю22957 0.0 100618
03:00+12ююз23972 0.0 100642
06:00+14ю25952 0.0 1005139
09:00+19ю34715 0.0 1006530
12:00+23ююз33475 0.0 10051879
15:00+24ююз334197 0.0 10052519
18:00+20ююв236583 0.0 100695
21:00+18ююз237691 0.0 100749
14 июня, пн
пн1400:00+17ююз117191 0.0 100812
03:00+16зюз227491 0.0 101029
06:00+16з128046 0.0 101189
09:00+22зюз116040 0.0 1013569
12:00+25з2250100 0.2 10131647
15:00+22ссз457061 1.1 1014778
18:00+20ссз227782 0.6 101465
21:00+17ссз238791 1.2 101557
15 июня, вт
вт1500:00+14св239199 0.0 101555
03:00+13св119227 0.0 101511
06:00+15всв118911 0.0 101558
09:00+21ююз12705 0.0 1014555
12:00+24зюз245615 0.1 10121452
15:00+25ююз345371 0.8 10101519
18:00+24юз246281 0.1 1009633
21:00+17зсз228154 0.4 101031
16 июня, ср
ср1600:00+17сз2876100 0.0 1010187
03:00+15сз41078100 0.0 1011321
06:00+15ссз3887100 0.0 1012329
09:00+18ссз466474 0.0 10131135
12:00+21ссз56413 0.0 10142047
15:00+22ссз56353 0.0 10152195
18:00+21ссз46420 0.0 10171722
21:00+14сз376777 0.0 1019126
17 июня, чт
чт1700:00+12ссз39690 0.0 1021150
03:00+10ссз24720 0.0 102376
06:00+12ссз25730 0.0 1024136
09:00+18ссз23500 0.0 1025560
12:00+22ссз24410 0.0 10251758
15:00+24сз24375 0.0 10252186
18:00+24ссз23475 0.0 10251763
21:00+18с226871 0.0 102511